• In Netherlands
  • List of Countries
  • For 7 days
  • Water Temperature
  • Satellite Maps
  • Weather Map
  • Weather Widgets
  • user-avatar
    Login

    Hourly Weather Dangriga

    Today, 27 May, Saturday

    Time Temperature Precipitation Wind Pressure Humidity
    00:00 +28°C° 0 mm 4 mps 759 mmHg 94%
    01:00 +28°C° 0.9 mm 4 mps 759 mmHg 94%
    02:00 +27°C° 0.9 mm 4 mps 759 mmHg 94%
    03:00 +27°C° 0.9 mm 4 mps 758 mmHg 95%
    04:00 +27°C° 1.3 mm 4 mps 758 mmHg 93%
    05:00 +28°C° 1.3 mm 4 mps 759 mmHg 92%
    06:00 +28°C° 1.3 mm 4 mps 759 mmHg 91%
    07:00 +30°C° 0.4 mm 4 mps 759 mmHg 83%
    08:00 +32°C° 0.4 mm 4 mps 759 mmHg 75%
    09:00 +34°C° 0.4 mm 4 mps 759 mmHg 67%
    10:00 +35°C° 0.2 mm 4 mps 759 mmHg 63%
    11:00 +35°C° 0.2 mm 4 mps 759 mmHg 59%
    12:00 +36°C° 0.2 mm 4 mps 759 mmHg 55%
    13:00 +36°C° 0.1 mm 4 mps 759 mmHg 56%
    14:00 +35°C° 0.1 mm 4 mps 758 mmHg 58%
    15:00 +35°C° 0.1 mm 4 mps 758 mmHg 60%
    16:00 +33°C° 0.6 mm 4 mps 758 mmHg 68%
    17:00 +32°C° 0.6 mm 5 mps 758 mmHg 77%
    18:00 +29°C° 0.6 mm 5 mps 758 mmHg 85%
    19:00 +29°C° 0.5 mm 5 mps 759 mmHg 87%
    20:00 +29°C° 0.5 mm 5 mps 759 mmHg 89%
    21:00 +28°C° 0.5 mm 5 mps 760 mmHg 91%
    22:00 +28°C° 0.4 mm 5 mps 760 mmHg 91%
    23:00 +28°C° 0.4 mm 5 mps 760 mmHg 91%

    Tomorrow, 28 May, Sunday

    Time Temperature Precipitation Wind Pressure Humidity
    00:00 +27°C° 0.4 mm 5 mps 760 mmHg 91%
    01:00 +28°C° 0.3 mm 5 mps 759 mmHg 91%
    02:00 +28°C° 0.3 mm 5 mps 759 mmHg 91%
    03:00 +28°C° 0.3 mm 5 mps 758 mmHg 90%
    04:00 +28°C° 0.1 mm 5 mps 759 mmHg 90%
    05:00 +28°C° 0.1 mm 4 mps 759 mmHg 91%
    06:00 +28°C° 0.1 mm 4 mps 759 mmHg 91%
    07:00 +29°C° 0 mm 4 mps 759 mmHg 87%
    08:00 +30°C° 0 mm 4 mps 760 mmHg 83%
    09:00 +32°C° 0 mm 5 mps 760 mmHg 79%
    10:00 +33°C° 0.1 mm 5 mps 760 mmHg 72%
    11:00 +34°C° 0.1 mm 5 mps 760 mmHg 64%
    12:00 +36°C° 0.1 mm 5 mps 760 mmHg 57%
    13:00 +35°C° 0 mm 5 mps 759 mmHg 56%
    14:00 +35°C° 0 mm 5 mps 759 mmHg 56%
    15:00 +35°C° 0 mm 5 mps 758 mmHg 55%
    16:00 +34°C° 0 mm 5 mps 758 mmHg 61%
    17:00 +33°C° 0 mm 5 mps 758 mmHg 67%
    18:00 +30°C° 0 mm 5 mps 758 mmHg 72%
    19:00 +30°C° 0 mm 5 mps 759 mmHg 76%
    20:00 +29°C° 0 mm 5 mps 759 mmHg 79%
    21:00 +29°C° 0 mm 5 mps 760 mmHg 82%
    22:00 +29°C° 0.2 mm 5 mps 760 mmHg 83%
    23:00 +29°C° 0.2 mm 5 mps 760 mmHg 83%

    Day after tomorrow, 29 May, Monday

    Time Temperature Precipitation Wind Pressure Humidity
    00:00 +29°C° 0.2 mm 5 mps 760 mmHg 84%
    01:00 +29°C° 0.1 mm 5 mps 759 mmHg 84%
    02:00 +28°C° 0.1 mm 5 mps 759 mmHg 85%
    03:00 +28°C° 0.1 mm 5 mps 758 mmHg 86%
    04:00 +28°C° 0 mm 5 mps 759 mmHg 86%
    05:00 +28°C° 0 mm 5 mps 759 mmHg 86%
    06:00 +28°C° 0 mm 5 mps 759 mmHg 86%
    07:00 +30°C° 0 mm 5 mps 759 mmHg 79%
    08:00 +32°C° 0 mm 5 mps 760 mmHg 71%
    09:00 +34°C° 0 mm 5 mps 760 mmHg 64%
    10:00 +35°C° 0 mm 5 mps 760 mmHg 59%
    11:00 +36°C° 0 mm 5 mps 760 mmHg 54%
    12:00 +36°C° 0 mm 5 mps 760 mmHg 49%
    13:00 +36°C° 0 mm 5 mps 759 mmHg 49%
    14:00 +36°C° 0 mm 5 mps 759 mmHg 48%
    15:00 +35°C° 0 mm 5 mps 758 mmHg 48%
    16:00 +34°C° 0 mm 5 mps 758 mmHg 55%
    17:00 +33°C° 0 mm 5 mps 758 mmHg 63%
    18:00 +30°C° 0 mm 5 mps 759 mmHg 71%
    19:00 +30°C° 0 mm 5 mps 759 mmHg 75%
    20:00 +29°C° 0 mm 6 mps 760 mmHg 78%
    21:00 +29°C° 0 mm 6 mps 760 mmHg 82%
    22:00 +29°C° 0 mm 6 mps 760 mmHg 82%
    23:00 +29°C° 0 mm 6 mps 760 mmHg 83%

    30 May, Tuesday

    Time Temperature Precipitation Wind Pressure Humidity
    00:00 +29°C° 0 mm 6 mps 760 mmHg 83%
    01:00 +29°C° 0 mm 6 mps 759 mmHg 84%
    02:00 +29°C° 0 mm 6 mps 759 mmHg 85%
    03:00 +29°C° 0 mm 5 mps 758 mmHg 85%
    04:00 +29°C° 0.2 mm 5 mps 759 mmHg 85%
    05:00 +29°C° 0.2 mm 5 mps 759 mmHg 85%
    06:00 +29°C° 0.2 mm 5 mps 759 mmHg 84%
    07:00 +30°C° 0 mm 5 mps 760 mmHg 77%
    08:00 +32°C° 0 mm 5 mps 760 mmHg 70%
    09:00 +33°C° 0 mm 5 mps 761 mmHg 64%
    10:00 +34°C° 0 mm 5 mps 760 mmHg 59%
    11:00 +35°C° 0 mm 5 mps 760 mmHg 54%
    12:00 +36°C° 0 mm 5 mps 759 mmHg 50%
    13:00 +36°C° 0 mm 5 mps 759 mmHg 50%
    14:00 +36°C° 0 mm 5 mps 758 mmHg 50%
    15:00 +36°C° 0 mm 5 mps 757 mmHg 50%
    16:00 +34°C° 0 mm 5 mps 758 mmHg 58%
    17:00 +33°C° 0 mm 5 mps 758 mmHg 65%
    18:00 +30°C° 0 mm 6 mps 758 mmHg 73%
    19:00 +30°C° 0.4 mm 6 mps 759 mmHg 76%
    20:00 +29°C° 0.4 mm 6 mps 759 mmHg 80%
    21:00 +29°C° 0.4 mm 6 mps 760 mmHg 84%
    22:00 +29°C° 0.5 mm 6 mps 760 mmHg 85%
    23:00 +28°C° 0.5 mm 6 mps 759 mmHg 86%

    31 May, Wednesday

    Time Temperature Precipitation Wind Pressure Humidity
    00:00 +28°C° 0.5 mm 6 mps 759 mmHg 87%
    01:00 +28°C° 0.3 mm 6 mps 759 mmHg 88%
    02:00 +28°C° 0.3 mm 6 mps 758 mmHg 89%
    03:00 +28°C° 0.3 mm 6 mps 758 mmHg 90%
    04:00 +28°C° 0.5 mm 5 mps 758 mmHg 91%
    05:00 +28°C° 0.5 mm 5 mps 759 mmHg 91%
    06:00 +28°C° 0.5 mm 5 mps 759 mmHg 92%
    07:00 +29°C° 1 mm 5 mps 759 mmHg 83%
    08:00 +32°C° 1 mm 5 mps 760 mmHg 73%
    09:00 +34°C° 1 mm 5 mps 760 mmHg 64%
    10:00 +34°C° 0.4 mm 5 mps 759 mmHg 66%
    11:00 +34°C° 0.4 mm 5 mps 759 mmHg 67%
    12:00 +35°C° 0.4 mm 5 mps 758 mmHg 69%
    13:00 +35°C° 0.7 mm 5 mps 758 mmHg 65%
    14:00 +35°C° 0.7 mm 5 mps 758 mmHg 62%
    15:00 +35°C° 0.7 mm 5 mps 757 mmHg 59%
    16:00 +34°C° 0.9 mm 5 mps 757 mmHg 63%
    17:00 +33°C° 0.9 mm 5 mps 758 mmHg 68%
    18:00 +32°C° 0.9 mm 6 mps 758 mmHg 72%
    19:00 +30°C° 1.2 mm 6 mps 758 mmHg 76%
    20:00 +29°C° 1.2 mm 6 mps 759 mmHg 79%
    21:00 +29°C° 1.2 mm 6 mps 759 mmHg 83%
    22:00 +29°C° 0.6 mm 6 mps 759 mmHg 86%
    23:00 +28°C° 0.6 mm 6 mps 759 mmHg 88%

    1 June, Thursday

    Time Temperature Precipitation Wind Pressure Humidity
    00:00 +28°C° 0.6 mm 6 mps 758 mmHg 90%
    01:00 +28°C° 1.9 mm 6 mps 758 mmHg 92%
    02:00 +28°C° 1.9 mm 6 mps 758 mmHg 93%
    03:00 +27°C° 1.9 mm 6 mps 757 mmHg 94%
    04:00 +28°C° 2.7 mm 6 mps 758 mmHg 94%
    05:00 +28°C° 2.7 mm 6 mps 758 mmHg 94%
    06:00 +28°C° 2.7 mm 6 mps 758 mmHg 94%
    07:00 +29°C° 1.1 mm 6 mps 759 mmHg 90%
    08:00 +30°C° 1.1 mm 5 mps 759 mmHg 87%
    09:00 +30°C° 1.1 mm 5 mps 759 mmHg 83%
    10:00 +32°C° 1.1 mm 5 mps 759 mmHg 78%
    11:00 +33°C° 1.1 mm 5 mps 759 mmHg 73%
    12:00 +33°C° 1.1 mm 5 mps 758 mmHg 68%
    13:00 +33°C° 0.2 mm 5 mps 758 mmHg 68%
    14:00 +33°C° 0.2 mm 5 mps 757 mmHg 68%
    15:00 +33°C° 0.2 mm 5 mps 757 mmHg 67%
    16:00 +32°C° 0.3 mm 5 mps 757 mmHg 73%
    17:00 +30°C° 0.3 mm 6 mps 757 mmHg 79%
    18:00 +29°C° 0.3 mm 6 mps 757 mmHg 85%
    19:00 +29°C° 0.6 mm 6 mps 757 mmHg 87%
    20:00 +29°C° 0.6 mm 6 mps 758 mmHg 89%
    21:00 +28°C° 0.6 mm 7 mps 758 mmHg 91%
    22:00 +28°C° 2 mm 7 mps 758 mmHg 92%
    23:00 +28°C° 2 mm 7 mps 758 mmHg 92%
    Show more